,,�O�C���x[��],����1,�O�C���x[��],����2,���ԉ��x [��],����3,���Ԏ��x [��],����4,�Q�����x [��],����5,���� [��],����6,�R�����i��󒲎��j���x�m���n,����7
2003/12/1,0:00,11.5,0,78.2,0,,1,,1,20.8,0,16.3,0,23.2,0
2003/12/1,0:15,11.5,0,78.5,0,,1,,1,20.7,0,16.4,0,23,0
2003/12/1,0:30,11.4,0,78.6,0,,1,,1,20.7,0,16.5,0,22.9,0
2003/12/1,0:45,11.3,0,77.7,0,,1,,1,20.7,0,16.6,0,22.8,0
2003/12/1,1:00,11.3,0,77.2,0,,1,,1,20.6,0,16.7,0,22.6,0
2003/12/1,1:15,11.3,0,76.5,0,,1,,1,20.6,0,16.8,0,22.5,0
2003/12/1,1:30,11.3,0,76.1,0,,1,,1,20.6,0,16.9,0,22.3,0
2003/12/1,1:45,11.2,0,75.8,0,,1,,1,20.6,0,17,0,22.3,0
2003/12/1,2:00,11.2,0,76.6,0,,1,,1,20.6,0,17,0,22.2,0
2003/12/1,2:15,11.2,0,76.7,0,,1,,1,20.6,0,17.1,0,22.2,0
2003/12/1,2:30,11.1,0,77.7,0,,1,,1,20.6,0,17.2,0,22.1,0
2003/12/1,2:45,11,0,75.9,0,,1,,1,20.5,0,17.3,0,22,0
2003/12/1,3:00,10.9,0,75.6,0,,1,,1,20.5,0,17.4,0,22,0
2003/12/1,3:15,10.7,0,75.3,0,,1,,1,20.4,0,17.4,0,21.9,0
2003/12/1,3:30,10.5,0,75.7,0,,1,,1,20.4,0,17.5,0,21.9,0
2003/12/1,3:45,10.3,0,75.9,0,,1,,1,20.3,0,17.6,0,21.8,0
2003/12/1,4:00,10.4,0,76.9,0,,1,,1,20.3,0,17.6,0,21.7,0
2003/12/1,4:15,10.4,0,77,0,,1,,1,20.2,0,17.7,0,21.7,0
2003/12/1,4:30,10.4,0,77.5,0,,1,,1,20.2,0,17.8,0,21.6,0
2003/12/1,4:45,10.3,0,80.3,0,,1,,1,20.2,0,17.9,0,21.5,0
2003/12/1,5:00,10.2,0,79.4,0,,1,,1,20.1,0,17.9,0,21.4,0
2003/12/1,5:15,10.3,0,78.2,0,,1,,1,20.1,0,18,0,21.4,0
2003/12/1,5:30,10.1,0,79.7,0,,1,,1,20,0,18,0,21.3,0
2003/12/1,5:45,9.9,0,79.7,0,,1,,1,20,0,18.1,0,21.2,0
2003/12/1,6:00,9.6,0,79.8,0,,1,,1,21,0,18.1,0,21.7,0
2003/12/1,6:15,9.5,0,77.9,0,,1,,1,22.1,0,18.2,0,22.6,0
2003/12/1,6:30,9.3,0,78.1,0,,1,,1,23.2,0,18.3,0,23.1,0
2003/12/1,6:45,9.3,0,75.6,0,,1,,1,23.3,0,15.6,0,24.2,0
2003/12/1,7:00,9.4,0,73.5,0,,1,,1,23.2,0,15.7,0,25,0
2003/12/1,7:15,9.4,0,73.2,0,,1,,1,22.1,0,15.8,0,24.3,0
2003/12/1,7:30,9.1,0,77.7,0,,1,,1,21.5,0,15.9,0,24.3,0
2003/12/1,7:45,9.3,0,75.4,0,,1,,1,21.1,0,14.6,0,24.2,0
2003/12/1,8:00,9.5,0,74,0,,1,,1,20.7,0,14.7,0,24,0
2003/12/1,8:15,9.7,0,72.7,0,,1,,1,20.4,0,14.7,0,23.7,0
2003/12/1,8:30,9.9,0,69.9,0,,1,,1,20.1,0,14.8,0,23.5,0
2003/12/1,8:45,10,0,69.5,0,,1,,1,19.9,0,14.9,0,23.2,0
2003/12/1,9:00,10.2,0,68.2,0,,1,,1,19.8,0,15,0,23,0
2003/12/1,9:15,10.4,0,67.2,0,,1,,1,19.6,0,15.1,0,22.9,0
2003/12/1,9:30,10.6,0,67,0,,1,,1,19.5,0,15.2,0,22.7,0
2003/12/1,9:45,10.7,0,67.5,0,,1,,1,19.4,0,15.3,0,22.6,0
2003/12/1,10:00,10.9,0,65.9,0,,1,,1,19.3,0,15.4,0,22.5,0
2003/12/1,10:15,11.1,0,64.9,0,,1,,1,19.2,0,15.5,0,22.4,0
2003/12/1,10:30,11.3,0,64.5,0,,1,,1,19.1,0,15.6,0,22.3,0
2003/12/1,10:45,11.6,0,63.1,0,,1,,1,19.1,0,15.7,0,22.2,0
2003/12/1,11:00,11.7,0,62.1,0,,1,,1,19,0,15.8,0,22.2,0
2003/12/1,11:15,11.5,0,65.6,0,,1,,1,18.9,0,15.9,0,22.2,0
2003/12/1,11:30,11.5,0,67.2,0,,1,,1,18.9,0,16,0,22.1,0
2003/12/1,11:45,11.8,0,67,0,,1,,1,18.8,0,16.1,0,22.1,0
2003/12/1,12:00,12.1,0,65.6,0,,1,,1,18.8,0,16.2,0,22.1,0
2003/12/1,12:15,12.4,0,65.1,0,,1,,1,18.7,0,16.3,0,22,0
2003/12/1,12:30,12.2,0,64.9,0,,1,,1,18.7,0,16.3,0,22,0
2003/12/1,12:45,12.1,0,65.8,0,,1,,1,18.6,0,16.4,0,22,0
2003/12/1,13:00,12.1,0,66.8,0,,1,,1,18.6,0,16.5,0,22,0
2003/12/1,13:15,12.2,0,67.8,0,,1,,1,18.6,0,16.6,0,21.9,0
2003/12/1,13:30,12.2,0,67.5,0,,1,,1,18.5,0,16.7,0,21.9,0
2003/12/1,13:45,12.2,0,69.6,0,,1,,1,18.5,0,16.8,0,21.9,0
2003/12/1,14:00,11.9,0,73.3,0,,1,,1,18.4,0,16.9,0,21.8,0
2003/12/1,14:15,11.8,0,75.1,0,,1,,1,18.4,0,16.9,0,21.8,0
2003/12/1,14:30,11.7,0,75,0,,1,,1,18.4,0,17,0,21.7,0
2003/12/1,14:45,11.6,0,76.5,0,,1,,1,18.3,0,17.1,0,21.6,0
2003/12/1,15:00,11.5,0,77.7,0,,1,,1,18.3,0,17.2,0,21.6,0
2003/12/1,15:15,11.2,0,78.8,0,,1,,1,18.2,0,17.2,0,21.5,0
2003/12/1,15:30,11.1,0,78.3,0,,1,,1,18.2,0,17.3,0,21.4,0
2003/12/1,15:45,10.8,0,79.5,0,,1,,1,18.2,0,17.4,0,21.3,0
2003/12/1,16:00,10.5,0,81.1,0,,1,,1,18.1,0,17.4,0,21.3,0
2003/12/1,16:15,10.4,0,81,0,,1,,1,18.1,0,17.5,0,21.2,0
2003/12/1,16:30,10.2,0,81.4,0,,1,,1,18,0,17.5,0,21.1,0
2003/12/1,16:45,9.9,0,82.4,0,,1,,1,18,0,17.6,0,21,0
2003/12/1,17:00,9.5,0,84.5,0,,1,,1,17.9,0,17.7,0,20.9,0
2003/12/1,17:15,9.3,0,84.9,0,,1,,1,17.9,0,17.7,0,20.8,0
2003/12/1,17:30,9.4,0,84.5,0,,1,,1,17.8,0,17.8,0,20.7,0
2003/12/1,17:45,8.9,0,86.5,0,,1,,1,17.8,0,17.8,0,21.7,0
2003/12/1,18:00,8.7,0,87.6,0,,1,,1,17.7,0,14.9,0,22.8,0
2003/12/1,18:15,8.5,0,88.8,0,,1,,1,17.6,0,15.2,0,23.5,0
2003/12/1,18:30,8.4,0,88.8,0,,1,,1,17.5,0,13.7,0,23.7,0
2003/12/1,18:45,8.2,0,88.9,0,,1,,1,18.7,0,14.4,0,23.9,0
2003/12/1,19:00,8,0,90,0,,1,,1,19.8,0,14.4,0,24,0
2003/12/1,19:15,8,0,90.3,0,,1,,1,21,0,14.5,0,24,0
2003/12/1,19:30,7.8,0,90.3,0,,1,,1,21.8,0,14.6,0,24.2,0
2003/12/1,19:45,7.5,0,90.7,0,,1,,1,22.5,0,14.7,0,24.3,0
2003/12/1,20:00,7.7,0,90.9,0,,1,,1,23.1,0,14.8,0,24.3,0
2003/12/1,20:15,7.6,0,90.5,0,,1,,1,23.4,0,13.9,0,24.3,0
2003/12/1,20:30,7.2,0,90.7,0,,1,,1,23.5,0,14.4,0,24.3,0
2003/12/1,20:45,7.2,0,91.1,0,,1,,1,23.5,0,14.5,0,24.3,0
2003/12/1,21:00,7.2,0,90.9,0,,1,,1,23.6,0,14.6,0,24.4,0
2003/12/1,21:15,7.2,0,90.2,0,,1,,1,23.7,0,14.7,0,24.4,0
2003/12/1,21:30,7,0,90.1,0,,1,,1,22.9,0,14.8,0,24.4,0
2003/12/1,21:45,6.8,0,90.7,0,,1,,1,22.4,0,14.9,0,24.4,0
2003/12/1,22:00,6.8,0,90.7,0,,1,,1,22,0,15,0,24.5,0
2003/12/1,22:15,6.4,0,90.8,0,,1,,1,21.7,0,15.2,0,24.6,0
2003/12/1,22:30,6.4,0,91.4,0,,1,,1,21.3,0,14.3,0,24.6,0
2003/12/1,22:45,6.4,0,91.5,0,,1,,1,21.1,0,14.8,0,24.3,0
2003/12/1,23:00,6.4,0,90.9,0,,1,,1,21,0,14.8,0,23.9,0
2003/12/1,23:15,6.4,0,89.9,0,,1,,1,20.9,0,14.9,0,23.6,0
2003/12/1,23:30,6.2,0,90.7,0,,1,,1,20.7,0,15,0,23.3,0
2003/12/1,23:45,6.2,0,90,0,,1,,1,20.6,0,15.1,0,23.1,0
2003/12/2,0:00,6,0,91,0,,1,,1,20.5,0,15.2,0,22.9,0
2003/12/2,0:15,6.1,0,91,0,,1,,1,20.3,0,15.3,0,22.7,0
2003/12/2,0:30,6.2,0,90.2,0,,1,,1,20.2,0,15.4,0,22.5,0
2003/12/2,0:45,6.2,0,90.2,0,,1,,1,20.1,0,15.5,0,22.3,0
2003/12/2,1:00,6.1,0,90.5,0,,1,,1,20,0,15.6,0,22.1,0
2003/12/2,1:15,5.9,0,90,0,,1,,1,19.9,0,15.7,0,21.9,0
2003/12/2,1:30,5.4,0,91,0,,1,,1,19.8,0,15.8,0,21.7,0
2003/12/2,1:45,5.4,0,91.5,0,,1,,1,19.7,0,15.9,0,21.5,0
2003/12/2,2:00,5.6,0,91.2,0,,1,,1,19.7,0,16,0,21.3,0
2003/12/2,2:15,6,0,88.8,0,,1,,1,19.6,0,16.1,0,21.2,0
2003/12/2,2:30,5.6,0,90.3,0,,1,,1,19.5,0,16.1,0,21.1,0
2003/12/2,2:45,5.1,0,90.9,0,,1,,1,19.4,0,16.2,0,20.9,0
2003/12/2,3:00,5.1,0,91.8,0,,1,,1,19.4,0,16.3,0,20.8,0
2003/12/2,3:15,5.2,0,91.8,0,,1,,1,19.3,0,16.4,0,20.7,0
2003/12/2,3:30,4.6,0,91.6,0,,1,,1,19.2,0,16.4,0,20.5,0
2003/12/2,3:45,4.4,0,92.4,0,,1,,1,19.1,0,16.5,0,20.4,0
2003/12/2,4:00,4.3,0,92.4,0,,1,,1,19.1,0,16.6,0,20.3,0
2003/12/2,4:15,4.2,0,92.6,0,,1,,1,19,0,16.6,0,20.2,0
2003/12/2,4:30,4.4,0,93,0,,1,,1,18.9,0,16.7,0,20,0
2003/12/2,4:45,4.1,0,92.5,0,,1,,1,18.8,0,16.8,0,19.9,0
2003/12/2,5:00,3.5,0,92.5,0,,1,,1,18.7,0,16.8,0,19.8,0
2003/12/2,5:15,4,0,93.4,0,,1,,1,18.6,0,16.8,0,19.6,0
2003/12/2,5:30,3.4,0,92.1,0,,1,,1,18.5,0,16.9,0,19.5,0
2003/12/2,5:45,2.7,0,92.8,0,,1,,1,18.4,0,16.9,0,19.6,0
2003/12/2,6:00,3,0,92.9,0,,1,,1,18.7,0,17,0,20.8,0
2003/12/2,6:15,2.2,0,92.8,0,,1,,1,20.5,0,17.1,0,21.6,0
2003/12/2,6:30,2.4,0,93,0,,1,,1,21.8,0,13.6,0,22.3,0
2003/12/2,6:45,2.8,0,93.6,0,,1,,1,22,0,15.1,0,22.9,0
2003/12/2,7:00,2.5,0,92.8,0,,1,,1,22.1,0,13.5,0,23.2,0
2003/12/2,7:15,2.6,0,93.3,0,,1,,1,20.7,0,14.3,0,22.9,0
2003/12/2,7:30,2.2,0,92.8,0,,1,,1,19.9,0,13.4,0,22.3,0
2003/12/2,7:45,2.6,0,93.3,0,,1,,1,19.4,0,13.6,0,21.9,0
2003/12/2,8:00,3.7,0,93.5,0,,1,,1,19,0,13.7,0,21.5,0
2003/12/2,8:15,4.6,0,91.7,0,,1,,1,18.7,0,13.7,0,21.2,0
2003/12/2,8:30,5.1,0,90.4,0,,1,,1,18.4,0,13.8,0,20.9,0
2003/12/2,8:45,5.8,0,88.8,0,,1,,1,18.2,0,13.9,0,20.6,0
2003/12/2,9:00,6.9,0,86,0,,1,,1,18,0,14,0,20.5,0
2003/12/2,9:15,7.6,0,82.8,0,,1,,1,17.9,0,14,0,20.6,0
2003/12/2,9:30,8.3,0,79.2,0,,1,,1,17.8,0,14.1,0,20.7,0
2003/12/2,9:45,8.3,0,78.9,0,,1,,1,17.7,0,14.2,0,20.8,0
2003/12/2,10:00,9,0,76.5,0,,1,,1,17.6,0,14.3,0,20.8,0
2003/12/2,10:15,10,0,73.3,0,,1,,1,17.5,0,14.4,0,20.9,0
2003/12/2,10:30,10.8,0,67.4,0,,1,,1,17.4,0,14.4,0,21.1,0
2003/12/2,10:45,11.7,0,62.3,0,,1,,1,17.4,0,14.5,0,21.3,0
2003/12/2,11:00,12.1,0,60.9,0,,1,,1,17.3,0,14.6,0,21.5,0
2003/12/2,11:15,12.8,0,56.7,0,,1,,1,17.2,0,14.7,0,21.7,0
2003/12/2,11:30,13,0,55.8,0,,1,,1,17.2,0,14.8,0,21.8,0
2003/12/2,11:45,12.7,0,57.7,0,,1,,1,17.1,0,14.9,0,21.8,0
2003/12/2,12:00,12.3,0,61.3,0,,1,,1,17.1,0,14.9,0,21.8,0
2003/12/2,12:15,13,0,56.2,0,,1,,1,17,0,15,0,21.8,0
2003/12/2,12:30,13.6,0,54.2,0,,1,,1,17,0,15.1,0,21.8,0
2003/12/2,12:45,13.5,0,53.7,0,,1,,1,17,0,15.2,0,21.9,0
2003/12/2,13:00,13.4,0,53.6,0,,1,,1,16.9,0,15.3,0,21.9,0
2003/12/2,13:15,13.5,0,54.4,0,,1,,1,16.9,0,15.4,0,22,0
2003/12/2,13:30,13,0,58.2,0,,1,,1,16.9,0,15.5,0,22,0
2003/12/2,13:45,12.3,0,60.7,0,,1,,1,16.9,0,15.6,0,22,0
2003/12/2,14:00,12.4,0,59,0,,1,,1,16.9,0,15.7,0,22,0
2003/12/2,14:15,12.6,0,58.3,0,,1,,1,17,0,15.8,0,22,0
2003/12/2,14:30,12.2,0,62.6,0,,1,,1,17,0,15.9,0,22,0
2003/12/2,14:45,11.9,0,63,0,,1,,1,17,0,16,0,21.9,0
2003/12/2,15:00,11.8,0,65.8,0,,1,,1,17,0,16.1,0,21.9,0
2003/12/2,15:15,11.5,0,71.3,0,,1,,1,17,0,16.2,0,21.8,0
2003/12/2,15:30,11,0,75.9,0,,1,,1,16.9,0,16.3,0,21.7,0
2003/12/2,15:45,10.7,0,79.6,0,,1,,1,16.9,0,16.3,0,21.7,0
2003/12/2,16:00,10.3,0,84.2,0,,1,,1,16.9,0,16.4,0,21.6,0
2003/12/2,16:15,9.9,0,87.6,0,,1,,1,16.9,0,16.5,0,21.5,0
2003/12/2,16:30,9.7,0,86.9,0,,1,,1,16.8,0,16.6,0,21.4,0
2003/12/2,16:45,9.6,0,88.6,0,,1,,1,16.8,0,16.7,0,21.3,0
2003/12/2,17:00,10.1,0,80.2,0,,1,,1,16.8,0,16.7,0,21.2,0
2003/12/2,17:15,10.5,0,76.2,0,,1,,1,16.7,0,16.8,0,21,0
2003/12/2,17:30,10.4,0,76.5,0,,1,,1,16.7,0,16.9,0,21,0
2003/12/2,17:45,10.3,0,75.1,0,,1,,1,17.5,0,14.6,0,21,0
2003/12/2,18:00,10.2,0,75,0,,1,,1,18.8,0,14.9,0,22.2,0
2003/12/2,18:15,10,0,74.2,0,,1,,1,19.7,0,15,0,23.2,0
2003/12/2,18:30,9.8,0,74.2,0,,1,,1,20.6,0,15,0,23.7,0
2003/12/2,18:45,9.8,0,72.3,0,,1,,1,21.4,0,15.1,0,24.1,0
2003/12/2,19:00,9.8,0,71.2,0,,1,,1,21.9,0,13.8,0,24.3,0
2003/12/2,19:15,9.8,0,71.8,0,,1,,1,22.4,0,14.3,0,24.4,0
2003/12/2,19:30,9.8,0,72.6,0,,1,,1,22.8,0,14.3,0,24.4,0
2003/12/2,19:45,9.8,0,70.6,0,,1,,1,23.1,0,14.4,0,24.4,0
2003/12/2,20:00,9.6,0,69.1,0,,1,,1,23.2,0,14.5,0,24.5,0
2003/12/2,20:15,9.4,0,66.4,0,,1,,1,23.4,0,14.6,0,24.4,0
2003/12/2,20:30,9.2,0,65.1,0,,1,,1,23.6,0,14.7,0,24.4,0
2003/12/2,20:45,9.1,0,61.7,0,,1,,1,23.6,0,14.9,0,24.4,0
2003/12/2,21:00,9.2,0,64.1,0,,1,,1,22.7,0,15,0,24.3,0
2003/12/2,21:15,9.1,0,63.8,0,,1,,1,22.4,0,15.1,0,24.4,0
2003/12/2,21:30,8.9,0,63.8,0,,1,,1,21.9,0,14,0,24.5,0
2003/12/2,21:45,8.9,0,62.9,0,,1,,1,21.5,0,14,0,24.7,0
2003/12/2,22:00,8.9,0,63.6,0,,1,,1,21.1,0,14,0,24.7,0
2003/12/2,22:15,8.9,0,63.3,0,,1,,1,20.8,0,14.1,0,24.7,0
2003/12/2,22:30,8.8,0,64.5,0,,1,,1,20.5,0,14.2,0,24.7,0
2003/12/2,22:45,8.5,0,61,0,,1,,1,20.3,0,14.3,0,24.7,0
2003/12/2,23:00,8.4,0,60.5,0,,1,,1,20,0,14.5,0,24.7,0
2003/12/2,23:15,8.4,0,62.1,0,,1,,1,19.9,0,14.3,0,24.7,0
2003/12/2,23:30,8.3,0,62.6,0,,1,,1,19.8,0,14.4,0,24.7,0
2003/12/2,23:45,8.3,0,61.1,0,,1,,1,19.7,0,14.2,0,24.5,0
2003/12/3,0:00,8.3,0,57.8,0,,1,,1,19.6,0,14.3,0,24.1,0
2003/12/3,0:15,8.4,0,59.4,0,,1,,1,19.6,0,14.4,0,23.8,0
2003/12/3,0:30,8.2,0,60,0,,1,,1,19.5,0,14.4,0,23.5,0
2003/12/3,0:45,8.1,0,58.4,0,,1,,1,19.5,0,14.5,0,23.3,0
2003/12/3,1:00,8,0,58.3,0,,1,,1,19.4,0,14.6,0,23.2,0
2003/12/3,1:15,7.8,0,60.2,0,,1,,1,19.4,0,14.7,0,23,0
2003/12/3,1:30,7.6,0,59.5,0,,1,,1,19.3,0,14.8,0,22.8,0
2003/12/3,1:45,7.6,0,59.1,0,,1,,1,19.3,0,14.9,0,22.6,0
2003/12/3,2:00,7.4,0,57.3,0,,1,,1,19.2,0,15,0,22.5,0
2003/12/3,2:15,7.1,0,55.2,0,,1,,1,19.2,0,15.1,0,22.3,0
2003/12/3,2:30,7.2,0,54.5,0,,1,,1,19.2,0,15.2,0,22.1,0
2003/12/3,2:45,7.6,0,53.7,0,,1,,1,19.1,0,15.3,0,21.9,0
2003/12/3,3:00,7.6,0,54.2,0,,1,,1,19.1,0,15.4,0,21.7,0
2003/12/3,3:15,7.5,0,53.1,0,,1,,1,19.1,0,15.5,0,21.6,0
2003/12/3,3:30,7.3,0,55.4,0,,1,,1,19,0,15.6,0,21.5,0
2003/12/3,3:45,7.4,0,55.5,0,,1,,1,19,0,15.7,0,21.4,0
2003/12/3,4:00,7.4,0,57.4,0,,1,,1,18.9,0,15.8,0,21.2,0
2003/12/3,4:15,7.5,0,54.4,0,,1,,1,18.9,0,15.8,0,21.1,0
2003/12/3,4:30,7.3,0,60.1,0,,1,,1,18.8,0,15.9,0,21,0
2003/12/3,4:45,7.4,0,57.1,0,,1,,1,18.7,0,16,0,20.9,0
2003/12/3,5:00,7.4,0,54.9,0,,1,,1,18.7,0,16.1,0,20.8,0
2003/12/3,5:15,7.1,0,51.2,0,,1,,1,18.7,0,16.2,0,20.7,0
2003/12/3,5:30,7.1,0,51.7,0,,1,,1,18.6,0,16.2,0,20.5,0
2003/12/3,5:45,7.1,0,50.5,0,,1,,1,18.6,0,16.3,0,20.5,0
2003/12/3,6:00,7,0,51.7,0,,1,,1,19.8,0,16.4,0,21,0
2003/12/3,6:15,7.1,0,50.5,0,,1,,1,21.3,0,16.5,0,21.9,0
2003/12/3,6:30,6.9,0,50.7,0,,1,,1,22.4,0,16.6,0,22.6,0
2003/12/3,6:45,6.9,0,53.9,0,,1,,1,22.7,0,14.9,0,23.1,0
2003/12/3,7:00,6.9,0,51.4,0,,1,,1,22.6,0,15,0,23.4,0
2003/12/3,7:15,6.9,0,53,0,,1,,1,21.3,0,15.1,0,23.2,0
2003/12/3,7:30,7,0,53.2,0,,1,,1,20.5,0,15.2,0,23,0
2003/12/3,7:45,7.1,0,53.4,0,,1,,1,19.9,0,13.3,0,22.9,0
2003/12/3,8:00,7.2,0,53.5,0,,1,,1,19.6,0,13.8,0,22.5,0
2003/12/3,8:15,7.3,0,53.7,0,,1,,1,19.3,0,13.8,0,22.2,0
2003/12/3,8:30,7.6,0,53,0,,1,,1,19.1,0,13.9,0,21.9,0
2003/12/3,8:45,7.6,0,53.4,0,,1,,1,18.8,0,14,0,21.7,0
2003/12/3,9:00,7.5,0,53.1,0,,1,,1,18.7,0,14.1,0,21.6,0
2003/12/3,9:15,7.2,0,54.5,0,,1,,1,18.5,0,14.2,0,21.4,0
2003/12/3,9:30,7,0,56.7,0,,1,,1,18.3,0,14.3,0,21.1,0
2003/12/3,9:45,6.9,0,57,0,,1,,1,18.2,0,14.3,0,21,0
2003/12/3,10:00,6.6,0,60.1,0,,1,,1,18.1,0,14.4,0,20.9,0
2003/12/3,10:15,6.2,0,63.1,0,,1,,1,17.9,0,14.5,0,20.7,0
2003/12/3,10:30,5.5,0,68.1,0,,1,,1,17.8,0,14.6,0,20.6,0
2003/12/3,10:45,5.3,0,69,0,,1,,1,17.7,0,14.7,0,20.4,0
2003/12/3,11:00,5.3,0,70.3,0,,1,,1,17.6,0,14.7,0,20.3,0
2003/12/3,11:15,4.9,0,74.5,0,,1,,1,17.5,0,14.8,0,20.2,0
2003/12/3,11:30,4.8,0,77,0,,1,,1,17.3,0,14.9,0,20,0
2003/12/3,11:45,4.8,0,76.7,0,,1,,1,17.2,0,14.9,0,19.9,0
2003/12/3,12:00,4.9,0,75,0,,1,,1,17.1,0,15,0,19.8,0
2003/12/3,12:15,5,0,72.7,0,,1,,1,17,0,15.1,0,19.7,0
2003/12/3,12:30,5.4,0,69,0,,1,,1,16.9,0,15.2,0,19.5,0
2003/12/3,12:45,5.3,0,70.2,0,,1,,1,16.8,0,15.3,0,19.5,0
2003/12/3,13:00,5,0,74.6,0,,1,,1,16.7,0,15.3,0,19.4,0
2003/12/3,13:15,5.1,0,75.7,0,,1,,1,16.7,0,15.4,0,19.2,0
2003/12/3,13:30,5,0,75.8,0,,1,,1,16.6,0,15.5,0,19.2,0
2003/12/3,13:45,5.1,0,76.1,0,,1,,1,16.5,0,15.5,0,19.1,0
2003/12/3,14:00,5.3,0,75.5,0,,1,,1,16.4,0,15.6,0,19,0
2003/12/3,14:15,5.5,0,75,0,,1,,1,16.3,0,15.6,0,18.9,0
2003/12/3,14:30,5.6,0,76.1,0,,1,,1,16.2,0,15.7,0,18.9,0
2003/12/3,14:45,5.5,0,75.8,0,,1,,1,16.2,0,15.8,0,18.8,0
2003/12/3,15:00,5.4,0,76.4,0,,1,,1,16.1,0,15.8,0,18.7,0
2003/12/3,15:15,5.3,0,78,0,,1,,1,16,0,15.9,0,18.6,0
2003/12/3,15:30,5.2,0,79.5,0,,1,,1,15.9,0,15.9,0,18.5,0
2003/12/3,15:45,5,0,80.3,0,,1,,1,15.9,0,16,0,18.4,0
2003/12/3,16:00,4.9,0,81.1,0,,1,,1,15.8,0,16,0,18.3,0
2003/12/3,16:15,4.7,0,81.1,0,,1,,1,15.7,0,16.1,0,18.3,0
2003/12/3,16:30,4.3,0,78.3,0,,1,,1,15.6,0,16.1,0,18.2,0
2003/12/3,16:45,4,0,81.7,0,,1,,1,15.5,0,16.1,0,18.1,0
2003/12/3,17:00,3.8,0,84.6,0,,1,,1,15.5,0,16.2,0,18,0
2003/12/3,17:15,3.6,0,85.8,0,,1,,1,15.4,0,16.2,0,17.9,0
2003/12/3,17:30,3.4,0,88.4,0,,1,,1,15.7,0,14.5,0,18,0
2003/12/3,17:45,3.1,0,89.1,0,,1,,1,17.7,0,13.8,0,19.7,0
2003/12/3,18:00,2.6,0,90.2,0,,1,,1,18.8,0,13.8,0,21.2,0
2003/12/3,18:15,2.4,0,90.9,0,,1,,1,19.7,0,13.9,0,21.6,0
2003/12/3,18:30,2,0,90.8,0,,1,,1,20.5,0,13.9,0,22,0
2003/12/3,18:45,1.9,0,91.3,0,,1,,1,21.2,0,14,0,22.6,0
2003/12/3,19:00,1.6,0,91.3,0,,1,,1,21.7,0,14.1,0,22.9,0
2003/12/3,19:15,1.2,0,91.9,0,,1,,1,22.1,0,13.5,0,23,0
2003/12/3,19:30,1.2,0,92.4,0,,1,,1,22.4,0,13.3,0,23.1,0
2003/12/3,19:45,1.4,0,92.5,0,,1,,1,22.6,0,13.3,0,23.3,0
2003/12/3,20:00,1.5,0,92.5,0,,1,,1,22.7,0,13.3,0,23.4,0
2003/12/3,20:15,1.6,0,92.7,0,,1,,1,22.7,0,13.4,0,23.3,0
2003/12/3,20:30,2.3,0,93.5,0,,1,,1,22.9,0,13.5,0,23.4,0
2003/12/3,20:45,4.9,0,88.4,0,,1,,1,23.1,0,13.6,0,23.5,0
2003/12/3,21:00,8.1,0,66.7,0,,1,,1,22.7,0,13.8,0,23.7,0
2003/12/3,21:15,7.9,0,73.7,0,,1,,1,21.9,0,13.8,0,23.7,0
2003/12/3,21:30,7,0,77.5,0,,1,,1,21.2,0,13.8,0,23.7,0
2003/12/3,21:45,6.9,0,71.7,0,,1,,1,20.7,0,13.9,0,23.7,0
2003/12/3,22:00,5.7,0,83.4,0,,1,,1,20.2,0,14,0,23.9,0
2003/12/3,22:15,5.8,0,76.2,0,,1,,1,20,0,14.1,0,23.9,0
2003/12/3,22:30,6,0,73.1,0,,1,,1,19.7,0,14.2,0,24,0
2003/12/3,22:45,5.5,0,77.5,0,,1,,1,19.5,0,14.3,0,24,0
2003/12/3,23:00,5.8,0,68.2,0,,1,,1,19.3,0,14.4,0,23.9,0
2003/12/3,23:15,5.3,0,68.1,0,,1,,1,19.1,0,14.5,0,23.4,0
2003/12/3,23:30,5.3,0,63.3,0,,1,,1,19,0,14.7,0,22.9,0
2003/12/3,23:45,5.3,0,66.5,0,,1,,1,18.9,0,14.7,0,22.5,0
2003/12/4,0:00,5.3,0,64.1,0,,1,,1,18.8,0,14.8,0,22.2,0
2003/12/4,0:15,5.2,0,63.5,0,,1,,1,18.7,0,14.9,0,22,0
2003/12/4,0:30,5.3,0,62.8,0,,1,,1,18.6,0,15,0,21.8,0
2003/12/4,0:45,5.3,0,59.8,0,,1,,1,18.5,0,15.1,0,21.6,0
2003/12/4,1:00,5.1,0,59.9,0,,1,,1,18.5,0,15.2,0,21.3,0
2003/12/4,1:15,4.9,0,59.8,0,,1,,1,18.4,0,15.3,0,21.1,0
2003/12/4,1:30,4.9,0,58.7,0,,1,,1,18.3,0,15.4,0,20.9,0
2003/12/4,1:45,4.9,0,57.7,0,,1,,1,18.2,0,15.5,0,20.7,0
2003/12/4,2:00,4.9,0,56.4,0,,1,,1,18.2,0,15.5,0,20.5,0
2003/12/4,2:15,4.9,0,57,0,,1,,1,18.1,0,15.6,0,20.3,0
2003/12/4,2:30,4.9,0,55.9,0,,1,,1,18.1,0,15.7,0,20.1,0
2003/12/4,2:45,4.9,0,54.6,0,,1,,1,18,0,15.8,0,20,0
2003/12/4,3:00,4.8,0,56.3,0,,1,,1,17.9,0,15.8,0,19.9,0
2003/12/4,3:15,4.7,0,56.5,0,,1,,1,17.9,0,15.9,0,19.8,0
2003/12/4,3:30,4.6,0,56.7,0,,1,,1,17.8,0,15.9,0,19.7,0
2003/12/4,3:45,4.5,0,54.1,0,,1,,1,17.7,0,16,0,19.6,0
2003/12/4,4:00,4.5,0,54.7,0,,1,,1,17.7,0,16.1,0,19.5,0
2003/12/4,4:15,4.4,0,54.9,0,,1,,1,17.6,0,16.1,0,19.4,0
2003/12/4,4:30,4.4,0,54.7,0,,1,,1,17.5,0,16.2,0,19.3,0
2003/12/4,4:45,4.4,0,52,0,,1,,1,17.4,0,16.3,0,19.1,0
2003/12/4,5:00,4.3,0,49.7,0,,1,,1,17.4,0,16.3,0,19,0
2003/12/4,5:15,3.8,0,65,0,,1,,1,17.3,0,16.4,0,18.9,0
2003/12/4,5:30,3.1,0,67.5,0,,1,,1,17.2,0,16.4,0,18.8,0
2003/12/4,5:45,3.6,0,56.1,0,,1,,1,17.1,0,16.4,0,18.7,0
2003/12/4,6:00,4.1,0,51.1,0,,1,,1,17.6,0,16.5,0,19.9,0
2003/12/4,6:15,4,0,49.2,0,,1,,1,19.5,0,16.6,0,21.1,0
2003/12/4,6:30,4.1,0,48.2,0,,1,,1,20.5,0,16.6,0,22.6,0
2003/12/4,6:45,4.2,0,48.9,0,,1,,1,21.3,0,16.7,0,24.4,0
2003/12/4,7:00,4.2,0,48.6,0,,1,,1,21.5,0,14.2,0,24.3,0
2003/12/4,7:15,3.9,0,45.6,0,,1,,1,19.8,0,14.8,0,23.7,0
2003/12/4,7:30,3.8,0,40.8,0,,1,,1,19.1,0,14.9,0,23.3,0
2003/12/4,7:45,3.7,0,39.8,0,,1,,1,18.5,0,14,0,23.2,0
2003/12/4,8:00,3.8,0,41.2,0,,1,,1,18.1,0,14.2,0,22.6,0
2003/12/4,8:15,3.8,0,45,0,,1,,1,17.7,0,14.3,0,21.9,0
2003/12/4,8:30,4,0,46.1,0,,1,,1,17.5,0,14.3,0,21.4,0
2003/12/4,8:45,3.9,0,45.7,0,,1,,1,17.2,0,14.4,0,21,0
2003/12/4,9:00,3.7,0,47.3,0,,1,,1,17,0,14.5,0,20.7,0
2003/12/4,9:15,3.8,0,50.6,0,,1,,1,16.8,0,14.5,0,20.4,0
2003/12/4,9:30,3.7,0,51.3,0,,1,,1,16.6,0,14.6,0,20.2,0
2003/12/4,9:45,3.9,0,46.7,0,,1,,1,16.4,0,14.7,0,19.9,0
2003/12/4,10:00,3.9,0,47.1,0,,1,,1,16.2,0,14.7,0,19.8,0
2003/12/4,10:15,4,0,48.3,0,,1,,1,16.1,0,14.8,0,19.6,0
2003/12/4,10:30,3.6,0,53.3,0,,1,,1,16,0,14.9,0,19.5,0
2003/12/4,10:45,3.6,0,55.1,0,,1,,1,15.8,0,14.9,0,19.3,0
2003/12/4,11:00,3.9,0,47.2,0,,1,,1,15.7,0,15,0,19.2,0
2003/12/4,11:15,4.1,0,46.2,0,,1,,1,15.6,0,15,0,19.1,0
2003/12/4,11:30,4.3,0,45.9,0,,1,,1,15.4,0,15.1,0,18.9,0
2003/12/4,11:45,4.6,0,43.2,0,,1,,1,15.3,0,15.2,0,18.9,0
2003/12/4,12:00,4.4,0,44.3,0,,1,,1,15.2,0,15.2,0,18.8,0
2003/12/4,12:15,4.9,0,46.6,0,,1,,1,15.1,0,15.3,0,18.7,0
2003/12/4,12:30,4.9,0,51.4,0,,1,,1,15,0,15.3,0,18.6,0
2003/12/4,12:45,4.8,0,51.5,0,,1,,1,15,0,15.4,0,18.6,0
2003/12/4,13:00,4.5,0,49.9,0,,1,,1,14.9,0,15.4,0,18.5,0
2003/12/4,13:15,5.2,0,46,0,,1,,1,14.8,0,15.5,0,18.4,0
2003/12/4,13:30,5.1,0,46.8,0,,1,,1,14.8,0,15.5,0,18.3,0
2003/12/4,13:45,5.3,0,42.1,0,,1,,1,14.8,0,15.6,0,18.3,0
2003/12/4,14:00,5.2,0,42.3,0,,1,,1,14.7,0,15.6,0,18.3,0
2003/12/4,14:15,5.4,0,40.5,0,,1,,1,14.7,0,15.7,0,18.2,0
2003/12/4,14:30,5.5,0,42.3,0,,1,,1,14.8,0,15.7,0,18.2,0
2003/12/4,14:45,5.3,0,43.6,0,,1,,1,14.8,0,15.8,0,18.2,0
2003/12/4,15:00,5.1,0,42.5,0,,1,,1,14.8,0,15.8,0,18.2,0
2003/12/4,15:15,5,0,40.5,0,,1,,1,14.9,0,15.9,0,18.2,0
2003/12/4,15:30,4.4,0,41.4,0,,1,,1,14.8,0,15.9,0,18.1,0
2003/12/4,15:45,4,0,42.2,0,,1,,1,14.8,0,15.9,0,18,0
2003/12/4,16:00,3.7,0,41.6,0,,1,,1,14.7,0,16,0,17.9,0
2003/12/4,16:15,3.4,0,41.7,0,,1,,1,14.6,0,16,0,17.8,0
2003/12/4,16:30,3.1,0,41.9,0,,1,,1,14.5,0,16.1,0,17.6,0
2003/12/4,16:45,3.2,0,45.8,0,,1,,1,14.4,0,16.1,0,17.5,0
2003/12/4,17:00,3.3,0,47.6,0,,1,,1,14.3,0,16.1,0,17.4,0
2003/12/4,17:15,3.5,0,45.7,0,,1,,1,14.2,0,16.2,0,17.3,0
2003/12/4,17:30,3.4,0,47.4,0,,1,,1,14.9,0,16.2,0,17.6,0
2003/12/4,17:45,3.3,0,47.7,0,,1,,1,16.8,0,16.2,0,19.3,0
2003/12/4,18:00,3.2,0,47.2,0,,1,,1,17.9,0,13.7,0,21,0
2003/12/4,18:15,2.9,0,48.5,0,,1,,1,18.7,0,13.7,0,21.9,0
2003/12/4,18:30,2.9,0,47.8,0,,1,,1,19.5,0,13.7,0,22.5,0
2003/12/4,18:45,3.1,0,51.2,0,,1,,1,20.2,0,13.4,0,22.9,0
2003/12/4,19:00,3.2,0,47.6,0,,1,,1,20.8,0,13.4,0,23,0
2003/12/4,19:15,3.1,0,49.3,0,,1,,1,21.3,0,13.5,0,23.3,0
2003/12/4,19:30,3.2,0,49.2,0,,1,,1,21.5,0,13.5,0,22.8,0
2003/12/4,19:45,3.3,0,52.2,0,,1,,1,21.5,0,13.6,0,22.6,0
2003/12/4,20:00,3.4,0,49.2,0,,1,,1,21.7,0,13.7,0,22.7,0
2003/12/4,20:15,3.3,0,51.4,0,,1,,1,21.9,0,13.8,0,22.9,0
2003/12/4,20:30,3.4,0,53.1,0,,1,,1,22.1,0,13.9,0,23,0
2003/12/4,20:45,3.4,0,49.7,0,,1,,1,21.7,0,14,0,23.1,0
2003/12/4,21:00,3.3,0,49.4,0,,1,,1,21,0,14.1,0,23.2,0
2003/12/4,21:15,3.3,0,50.7,0,,1,,1,20.4,0,14.2,0,23.3,0
2003/12/4,21:30,3.3,0,49.6,0,,1,,1,19.9,0,14.3,0,22.9,0
2003/12/4,21:45,3.3,0,51.7,0,,1,,1,19.5,0,14.4,0,22.7,0
2003/12/4,22:00,3.4,0,50.9,0,,1,,1,19.1,0,14.5,0,22.6,0
2003/12/4,22:15,3.4,0,50.5,0,,1,,1,18.8,0,14.6,0,22.9,0
2003/12/4,22:30,3.5,0,52.5,0,,1,,1,18.5,0,14.8,0,23.4,0
2003/12/4,22:45,3.5,0,53.1,0,,1,,1,18.3,0,14.9,0,23.6,0
2003/12/4,23:00,3.4,0,51.6,0,,1,,1,18.1,0,15,0,23.4,0
2003/12/4,23:15,3.3,0,50.5,0,,1,,1,17.9,0,15.1,0,22.9,0
2003/12/4,23:30,3.4,0,52.1,0,,1,,1,17.7,0,15.2,0,22.4,0
2003/12/4,23:45,3.6,0,50.2,0,,1,,1,17.5,0,15.3,0,22,0
2003/12/5,0:00,3.5,0,53,0,,1,,1,17.4,0,15.3,0,21.7,0
2003/12/5,0:15,3.5,0,51,0,,1,,1,17.3,0,15.4,0,21.5,0
2003/12/5,0:30,3.6,0,51.2,0,,1,,1,17.2,0,15.5,0,21.3,0
2003/12/5,0:45,3.6,0,51.9,0,,1,,1,17.1,0,15.6,0,21.1,0
2003/12/5,1:00,3.6,0,49.5,0,,1,,1,17,0,15.7,0,20.9,0
2003/12/5,1:15,3.6,0,50.9,0,,1,,1,17,0,15.8,0,20.6,0
2003/12/5,1:30,3.7,0,52.4,0,,1,,1,16.9,0,15.8,0,20.4,0
2003/12/5,1:45,3.7,0,52.8,0,,1,,1,16.8,0,15.9,0,20.2,0
2003/12/5,2:00,3.7,0,53.9,0,,1,,1,16.7,0,16,0,20,0
2003/12/5,2:15,3.8,0,53.7,0,,1,,1,16.6,0,16,0,19.8,0
2003/12/5,2:30,3.9,0,54.4,0,,1,,1,16.5,0,16.1,0,19.7,0
2003/12/5,2:45,3.8,0,52.5,0,,1,,1,16.4,0,16.1,0,19.6,0
2003/12/5,3:00,3.7,0,55.2,0,,1,,1,16.3,0,16.2,0,19.4,0
2003/12/5,3:15,3.7,0,54.9,0,,1,,1,16.2,0,16.2,0,19.3,0
2003/12/5,3:30,3.8,0,54.4,0,,1,,1,16.2,0,16.3,0,19.2,0
2003/12/5,3:45,3.7,0,53.7,0,,1,,1,16.2,0,16.3,0,19.1,0
2003/12/5,4:00,3.6,0,55.6,0,,1,,1,16.1,0,16.4,0,18.9,0
2003/12/5,4:15,3.6,0,54.7,0,,1,,1,16.1,0,16.4,0,18.8,0
2003/12/5,4:30,3.8,0,53.5,0,,1,,1,16,0,16.5,0,18.7,0
2003/12/5,4:45,3.8,0,55.3,0,,1,,1,15.9,0,16.5,0,18.5,0
2003/12/5,5:00,3.9,0,55.8,0,,1,,1,15.8,0,16.6,0,18.4,0
2003/12/5,5:15,3.9,0,54.1,0,,1,,1,15.7,0,16.6,0,18.3,0
2003/12/5,5:30,4,0,54.4,0,,1,,1,15.6,0,16.6,0,18.2,0
2003/12/5,5:45,4,0,55.7,0,,1,,1,15.9,0,16.7,0,18.2,0
2003/12/5,6:00,4.1,0,54.2,0,,1,,1,17.8,0,16.7,0,19.3,0
2003/12/5,6:15,4.1,0,55.6,0,,1,,1,19.3,0,16.8,0,20.8,0
2003/12/5,6:30,4.3,0,55.7,0,,1,,1,20.5,0,16.9,0,21.8,0
2003/12/5,6:45,4.4,0,56,0,,1,,1,20.8,0,13.6,0,22.6,0
2003/12/5,7:00,4.3,0,57.1,0,,1,,1,20.6,0,13.6,0,23,0
2003/12/5,7:15,4.4,0,57.3,0,,1,,1,19.4,0,13.7,0,22.7,0
2003/12/5,7:30,4.7,0,55.7,0,,1,,1,18.7,0,13.8,0,22.7,0
2003/12/5,7:45,4.8,0,55.4,0,,1,,1,18.1,0,13.5,0,22.9,0
2003/12/5,8:00,4.8,0,57.8,0,,1,,1,17.7,0,13.6,0,22.7,0
2003/12/5,8:15,5,0,57.4,0,,1,,1,17.3,0,13.7,0,22.1,0
2003/12/5,8:30,5.1,0,55.9,0,,1,,1,16.9,0,13.8,0,21.6,0
2003/12/5,8:45,5.3,0,54,0,,1,,1,16.6,0,13.8,0,21.2,0
2003/12/5,9:00,5.3,0,55.1,0,,1,,1,16.4,0,13.9,0,20.9,0
2003/12/5,9:15,5.6,0,54.1,0,,1,,1,16.2,0,14,0,20.7,0
2003/12/5,9:30,5.8,0,53.8,0,,1,,1,16,0,14.1,0,20.5,0
2003/12/5,9:45,5.9,0,56.4,0,,1,,1,15.8,0,14.1,0,20.3,0
2003/12/5,10:00,6.2,0,55.6,0,,1,,1,15.6,0,14.2,0,20.1,0
2003/12/5,10:15,6.5,0,54.8,0,,1,,1,15.5,0,14.3,0,20,0
2003/12/5,10:30,6.6,0,54.5,0,,1,,1,15.3,0,14.4,0,19.9,0